Regional Weather Roundup
Issued by NWS

Home | Current Version | Previous Version | Text Only | Print | Product List | Glossary On
Versions: 1 2 3 4 5 6 7 8 9 10 11 12 13 14 15 16 17 18 19 20 21 22 23 24 25 26 27 28 29 30 31 32 33 34 35 36 37 38 39 40 41 42 43 44 45 46 47 48 49 50
000
ASUS43 KTOP 180308
RWRKS

WEATHER ROUNDUP FOR KANSAS
NATIONAL WEATHER SERVICE GOODLAND KS
1000 PM CDT THU AUG 17 2017

NOTE:  "FAIR" INDICATES FEW OR NO CLOUDS BELOW 12,000 FEET WITH NO
SIGNIFICANT WEATHER AND/OR OBSTRUCTIONS TO VISIBILITY.

KSZ001>006-013>018-027>032-041>047-180400-
NORTHWEST KANSAS

CITY           SKY/WX    TMP DP  RH WIND       PRES   REMARKS
GOODLAND       CLEAR     75  62  64 S8        30.02F
HAYS           CLEAR     72  58  61 SE10      29.98R
HILL CITY      CLOUDY    74  57  55 SE3       29.97R
RUSSELL        CLEAR     72  56  57 SE9       29.97R
$$

KSZ061>065-074>080-084>089-180400-
SOUTHWEST KANSAS

CITY           SKY/WX    TMP DP  RH WIND       PRES   REMARKS
DODGE CITY     CLOUDY    79  58  48 SE14      30.00S
ELKHART          N/A     64  61  90 SE13        N/A
GARDEN CITY    CLOUDY    77  59  53 SE14      29.99R
LIBERAL        TSTM      67  59  75 SE23G37   29.98F
PRATT          CLOUDY    77  57  49 S9        30.02R
$$

KSZ066>073-081>083-090>101-180400-
SOUTHEAST KANSAS

CITY           SKY/WX    TMP DP  RH WIND       PRES   REMARKS
CHANUTE        CLEAR     70  65  84 S5        29.99R
COFFEYVILLE    CLEAR     70  67  90 CALM      29.99R
HUTCHINSON     CLOUDY    71  60  68 CALM      29.99R
MEDICINE LODGE   N/A     77  58  51 SE8       30.00R
NEWTON         CLOUDY    70  63  78 S9        30.01R
PARSONS        CLEAR     67  65  93 CALM      30.00R
WICHITA INTL   CLOUDY    74  62  66 S9        29.99R
WICHITA JABRA  CLOUDY    72  62  71 S6        30.00R
WICHITA MCCONL CLOUDY    73  60  63 SW8       30.00R
WINFIELD       CLOUDY    73  64  73 S3        30.01R
$$

KSZ007>012-019>026-033>040-048>060-102>105-180400-
NORTHEAST KANSAS

CITY           SKY/WX    TMP DP  RH WIND       PRES   REMARKS
CONCORDIA      CLEAR     72  60  66 S10       29.96R
EMPORIA        CLEAR     68  63  84 S8        29.98R
LAWRENCE       CLEAR     66  65  96 NE3       29.95R
MANHATTAN      CLEAR     67  64  90 CALM      29.96R
MARYSVILLE     CLEAR     66  61  82 S3        29.95R
OLATHE IND     CLEAR     70  62  76 S6        29.97R
OLATHE EXE     CLEAR     71  64  78 SW3       29.96R
SALINA         CLEAR     74  60  61 S6        29.97R
TOPEKA BILLARD CLEAR     67  63  87 CALM      29.95R
TOPEKA FORBES  CLEAR     71  63  75 SW5       29.96R
$$




USA.gov is the U.S. government's official web portal to all federal, state and local government web resources and services.